Time,TemperatureF,DewpointF,PressureIn,WindDirection,WindDirectionDegrees,WindSpeedMPH,WindSpeedGustMPH,Humidity,HourlyPrecipIn,Conditions,Clouds,dailyrainin,SoftwareType,DateUTC
2013-05-16 00:01:00,54.0,33.0,-100.00,NNE,30,0.0,5.0,44,-99.99,,,-99.99,,2013-05-16 06:01:00,
2013-05-16 00:12:00,54.0,33.0,-100.00,NNE,30,0.0,5.0,44,-99.99,,,-99.99,,2013-05-16 06:12:00,
2013-05-16 00:22:00,54.0,33.0,-100.00,NNE,15,1.0,2.0,44,-99.99,,,-99.99,,2013-05-16 06:22:00,
2013-05-16 00:33:00,55.0,33.0,-100.00,North,355,4.0,6.0,43,-99.99,,,-99.99,,2013-05-16 06:33:00,
2013-05-16 00:43:00,55.0,33.0,-100.00,North,355,4.0,6.0,43,-99.99,,,-99.99,,2013-05-16 06:43:00,
2013-05-16 00:52:00,55.0,33.0,-100.00,NE,35,3.0,4.0,43,-99.99,,,-99.99,,2013-05-16 06:52:00,
2013-05-16 01:02:00,51.0,33.0,-100.00,SE,125,2.0,4.0,49,-99.99,,,-99.99,,2013-05-16 07:02:00,
2013-05-16 01:12:00,51.0,33.0,-100.00,SE,125,2.0,4.0,49,-99.99,,,-99.99,,2013-05-16 07:12:00,
2013-05-16 01:24:00,54.0,34.0,-100.00,North,355,7.0,7.0,46,-99.99,,,-99.99,,2013-05-16 07:24:00,
2013-05-16 01:34:00,55.0,35.0,-100.00,NNE,30,7.0,10.0,46,-99.99,,,-99.99,,2013-05-16 07:34:00,
2013-05-16 01:44:00,55.0,35.0,-100.00,NNE,30,7.0,10.0,46,-99.99,,,-99.99,,2013-05-16 07:44:00,
2013-05-16 01:54:00,56.0,35.0,-100.00,NNW,330,9.0,10.0,45,-99.99,,,-99.99,,2013-05-16 07:54:00,
2013-05-16 02:03:00,55.0,37.0,-100.00,North,10,11.0,12.0,49,-99.99,,,-99.99,,2013-05-16 08:03:00,
2013-05-16 02:13:00,55.0,37.0,-100.00,North,10,11.0,12.0,49,-99.99,,,-99.99,,2013-05-16 08:13:00,
2013-05-16 02:24:00,55.0,38.0,-100.00,NNE,20,7.0,12.0,53,-99.99,,,-99.99,,2013-05-16 08:24:00,
2013-05-16 02:34:00,56.0,38.0,-100.00,NNE,20,7.0,8.0,51,-99.99,,,-99.99,,2013-05-16 08:34:00,
2013-05-16 02:45:00,56.0,38.0,-100.00,NNE,20,7.0,8.0,51,-99.99,,,-99.99,,2013-05-16 08:45:00,
2013-05-16 02:54:00,57.0,39.0,-100.00,NE,45,5.0,7.0,50,-99.99,,,-99.99,,2013-05-16 08:54:00,
2013-05-16 03:04:00,57.0,39.0,-100.00,East,80,7.0,9.0,50,-99.99,,,-99.99,,2013-05-16 09:04:00,
2013-05-16 03:14:00,57.0,39.0,-100.00,East,80,7.0,9.0,50,-99.99,,,-99.99,,2013-05-16 09:14:00,
2013-05-16 03:24:00,57.0,39.0,-100.00,ENE,65,7.0,9.0,50,-99.99,,,-99.99,,2013-05-16 09:24:00,
2013-05-16 03:35:00,56.0,40.0,-100.00,ENE,65,2.0,4.0,55,-99.99,,,-99.99,,2013-05-16 09:35:00,
2013-05-16 03:45:00,56.0,40.0,-100.00,ENE,65,2.0,4.0,55,-99.99,,,-99.99,,2013-05-16 09:45:00,
2013-05-16 03:55:00,55.0,40.0,-100.00,NE,40,1.0,3.0,58,-99.99,,,-99.99,,2013-05-16 09:55:00,
2013-05-16 04:05:00,56.0,40.0,-100.00,ENE,70,10.0,11.0,56,-99.99,,,-99.99,,2013-05-16 10:05:00,
2013-05-16 04:15:00,56.0,40.0,-100.00,ENE,70,10.0,11.0,56,-99.99,,,-99.99,,2013-05-16 10:15:00,
2013-05-16 04:24:00,56.0,40.0,-100.00,ENE,60,10.0,11.0,55,-99.99,,,-99.99,,2013-05-16 10:24:00,
2013-05-16 04:36:00,56.0,40.0,-100.00,NE,35,10.0,13.0,54,-99.99,,,-99.99,,2013-05-16 10:36:00,
2013-05-16 04:45:00,56.0,40.0,-100.00,NE,35,10.0,13.0,54,-99.99,,,-99.99,,2013-05-16 10:45:00,
2013-05-16 04:56:00,54.0,42.0,-100.00,NNE,20,12.0,12.0,61,-99.99,,,-99.99,,2013-05-16 10:56:00,
2013-05-16 05:05:00,54.0,43.0,-100.00,North,5,10.0,12.0,64,-99.99,,,-99.99,,2013-05-16 11:05:00,
2013-05-16 05:14:00,54.0,43.0,-100.00,North,5,10.0,12.0,64,-99.99,,,-99.99,,2013-05-16 11:14:00,
2013-05-16 05:25:00,54.0,43.0,-100.00,NNE,15,9.0,11.0,67,-99.99,,,-99.99,,2013-05-16 11:25:00,
2013-05-16 05:35:00,54.0,45.0,-100.00,North,350,10.0,12.0,71,-99.99,,,-99.99,,2013-05-16 11:35:00,
2013-05-16 05:46:00,54.0,45.0,-100.00,North,350,10.0,12.0,71,-99.99,,,-99.99,,2013-05-16 11:46:00,
2013-05-16 05:56:00,53.0,45.0,-100.00,NNE,30,6.0,10.0,74,-99.99,,,-99.99,,2013-05-16 11:56:00,
2013-05-16 06:06:00,54.0,45.0,-100.00,NNE,30,7.0,9.0,73,-99.99,,,-99.99,,2013-05-16 12:06:00,
2013-05-16 06:13:00,54.0,45.0,-100.00,NNE,30,7.0,9.0,73,-99.99,,,-99.99,,2013-05-16 12:13:00,
2013-05-16 06:23:00,54.0,45.0,-100.00,NE,50,5.0,8.0,72,-99.99,,,-99.99,,2013-05-16 12:23:00,
2013-05-16 06:35:00,53.0,46.0,-100.00,NE,55,9.0,9.0,77,-99.99,,,-99.99,,2013-05-16 12:35:00,
2013-05-16 06:45:00,53.0,46.0,-100.00,NE,55,9.0,9.0,77,-99.99,,,-99.99,,2013-05-16 12:45:00,
2013-05-16 06:53:00,53.0,46.0,-100.00,NE,40,9.0,11.0,77,-99.99,,,-99.99,,2013-05-16 12:53:00,
2013-05-16 07:04:00,53.0,47.0,-100.00,NE,35,6.0,10.0,79,-99.99,,,-99.99,,2013-05-16 13:04:00,
2013-05-16 07:12:00,53.0,47.0,-100.00,NE,35,6.0,10.0,79,-99.99,,,-99.99,,2013-05-16 13:12:00,
2013-05-16 07:26:00,53.0,47.0,-100.00,NNE,20,6.0,8.0,80,-99.99,,,-99.99,,2013-05-16 13:26:00,
2013-05-16 07:35:00,52.0,47.0,-100.00,NNE,25,9.0,11.0,82,-99.99,,,-99.99,,2013-05-16 13:35:00,
2013-05-16 07:43:00,52.0,47.0,-100.00,NNE,25,9.0,11.0,82,-99.99,,,-99.99,,2013-05-16 13:43:00,
2013-05-16 07:55:00,52.0,47.0,-100.00,NNE,20,14.0,16.0,83,-99.99,,,-99.99,,2013-05-16 13:55:00,
2013-05-16 08:05:00,52.0,47.0,-100.00,NE,55,14.0,16.0,82,-99.99,,,-99.99,,2013-05-16 14:05:00,
2013-05-16 08:16:00,52.0,47.0,-100.00,NE,55,14.0,16.0,82,-99.99,,,-99.99,,2013-05-16 14:16:00,
2013-05-16 08:23:00,52.0,47.0,-100.00,ENE,65,16.0,20.0,81,-99.99,,,-99.99,,2013-05-16 14:23:00,
2013-05-16 08:37:00,52.0,47.0,-100.00,East,80,16.0,20.0,82,-99.99,,,-99.99,,2013-05-16 14:37:00,
2013-05-16 08:47:00,52.0,47.0,-100.00,East,80,16.0,20.0,82,-99.99,,,-99.99,,2013-05-16 14:47:00,
2013-05-16 08:55:00,52.0,47.0,-100.00,ENE,70,17.0,21.0,82,-99.99,,,-99.99,,2013-05-16 14:55:00,
2013-05-16 09:08:00,52.0,46.0,-100.00,ENE,60,14.0,21.0,80,-99.99,,,-99.99,,2013-05-16 15:08:00,
2013-05-16 09:17:00,52.0,46.0,-100.00,ENE,60,14.0,21.0,80,-99.99,,,-99.99,,2013-05-16 15:17:00,
2013-05-16 09:28:00,52.0,46.0,-100.00,NE,40,13.0,19.0,78,-99.99,,,-99.99,,2013-05-16 15:28:00,
2013-05-16 09:40:00,53.0,46.0,-100.00,NNE,20,12.0,16.0,78,-99.99,,,-99.99,,2013-05-16 15:40:00,
2013-05-16 09:50:00,53.0,46.0,-100.00,NNE,20,12.0,16.0,78,-99.99,,,-99.99,,2013-05-16 15:50:00,
2013-05-16 10:00:00,53.0,46.0,-100.00,NE,40,14.0,17.0,78,-99.99,,,-99.99,,2013-05-16 16:00:00,
2013-05-16 10:09:00,53.0,46.0,-100.00,NE,35,10.0,14.0,77,-99.99,,,-99.99,,2013-05-16 16:09:00,
2013-05-16 10:20:00,53.0,46.0,-100.00,NE,35,10.0,14.0,77,-99.99,,,-99.99,,2013-05-16 16:20:00,
2013-05-16 10:30:00,53.0,46.0,-100.00,NE,35,12.0,16.0,77,-99.99,,,-99.99,,2013-05-16 16:30:00,
2013-05-16 10:40:00,52.0,-99.9,-100.00,NE,35,15.0,21.0,78,-99.99,,,-99.99,,2013-05-16 16:40:00,
2013-05-16 10:50:00,52.0,46.0,-100.00,NE,35,15.0,21.0,78,-99.99,,,-99.99,,2013-05-16 16:50:00,
2013-05-16 11:00:00,52.0,46.0,-100.00,NE,45,14.0,24.0,78,-99.99,,,-99.99,,2013-05-16 17:00:00,
2013-05-16 11:10:00,52.0,46.0,-100.00,NE,45,16.0,22.0,79,-99.99,,,-99.99,,2013-05-16 17:10:00,
2013-05-16 11:20:00,52.0,46.0,-100.00,NE,45,16.0,22.0,79,-99.99,,,-99.99,,2013-05-16 17:20:00,
2013-05-16 11:31:00,52.0,46.0,-100.00,NE,55,18.0,21.0,79,-99.99,,,-99.99,,2013-05-16 17:31:00,
2013-05-16 11:40:00,52.0,45.0,-100.00,ENE,65,19.0,24.0,77,-99.99,,,-99.99,,2013-05-16 17:40:00,
2013-05-16 11:50:00,52.0,-99.9,-100.00,ENE,65,19.0,24.0,77,-99.99,,,-99.99,,2013-05-16 17:50:00,
2013-05-16 12:00:00,53.0,-99.9,-100.00,ENE,70,21.0,24.0,77,-99.99,,,-99.99,,2013-05-16 18:00:00,
2013-05-16 12:10:00,53.0,46.0,-100.00,ENE,65,20.0,26.0,75,-99.99,,,-99.99,,2013-05-16 18:10:00,
2013-05-16 12:20:00,53.0,46.0,-100.00,ENE,65,20.0,26.0,75,-99.99,,,-99.99,,2013-05-16 18:20:00,
2013-05-16 12:30:00,-999.0,-99.9,-100.00,ENE,65,19.0,26.0,75,-99.99,,,-99.99,,2013-05-16 18:30:00,
2013-05-16 12:40:00,-999.0,-99.9,-100.00,ENE,70,21.0,26.0,76,-99.99,,,-99.99,,2013-05-16 18:40:00,
2013-05-16 12:50:00,-999.0,-99.9,-100.00,ENE,70,21.0,26.0,76,-99.99,,,-99.99,,2013-05-16 18:50:00,
2013-05-16 13:00:00,-999.0,-99.9,-100.00,ENE,75,21.0,26.0,74,-99.99,,,-99.99,,2013-05-16 19:00:00,
2013-05-16 13:10:00,55.0,46.0,-100.00,East,80,21.0,27.0,71,-99.99,,,-99.99,,2013-05-16 19:10:00,
2013-05-16 13:20:00,55.0,46.0,-100.00,East,80,21.0,27.0,71,-99.99,,,-99.99,,2013-05-16 19:20:00,
2013-05-16 13:30:00,56.0,46.0,-100.00,East,80,22.0,28.0,69,-99.99,,,-99.99,,2013-05-16 19:30:00,
2013-05-16 13:40:00,56.0,-99.9,-100.00,East,80,21.0,27.0,68,-99.99,,,-99.99,,2013-05-16 19:40:00,
2013-05-16 13:50:00,-999.0,-99.9,-100.00,East,80,21.0,27.0,68,-99.99,,,-99.99,,2013-05-16 19:50:00,
2013-05-16 14:00:00,57.0,-99.9,-100.00,ENE,75,20.0,26.0,66,-99.99,,,-99.99,,2013-05-16 20:00:00,
2013-05-16 14:10:00,-999.0,-99.9,-100.00,East,80,22.0,28.0,66,-99.99,,,-99.99,,2013-05-16 20:10:00,
2013-05-16 14:20:00,56.0,-99.9,-100.00,East,80,22.0,28.0,66,-99.99,,,-99.99,,2013-05-16 20:20:00,
2013-05-16 14:30:00,56.0,-99.9,-100.00,East,85,21.0,26.0,67,-99.99,,,-99.99,,2013-05-16 20:30:00,
2013-05-16 14:40:00,-999.0,-99.9,-100.00,East,90,19.0,24.0,69,-99.99,,,-99.99,,2013-05-16 20:40:00,
2013-05-16 14:50:00,55.0,46.0,-100.00,East,90,19.0,24.0,69,-99.99,,,-99.99,,2013-05-16 20:50:00,
2013-05-16 15:00:00,55.0,46.0,-100.00,East,85,17.0,24.0,70,-99.99,,,-99.99,,2013-05-16 21:00:00,
2013-05-16 15:10:00,55.0,-99.9,-100.00,East,85,16.0,23.0,70,-99.99,,,-99.99,,2013-05-16 21:10:00,
2013-05-16 15:20:00,55.0,-99.9,-100.00,East,85,16.0,23.0,70,-99.99,,,-99.99,,2013-05-16 21:20:00,
2013-05-16 15:29:00,55.0,45.0,-100.00,East,85,19.0,24.0,70,-99.99,,,-99.99,,2013-05-16 21:29:00,
2013-05-16 15:38:00,55.0,45.0,-100.00,East,85,17.0,21.0,69,-99.99,,,-99.99,,2013-05-16 21:38:00,
2013-05-16 15:50:00,55.0,-99.9,-100.00,East,85,17.0,21.0,69,-99.99,,,-99.99,,2013-05-16 21:50:00,
2013-05-16 16:00:00,-999.0,-99.9,-100.00,East,85,19.0,22.0,68,-99.99,,,-99.99,,2013-05-16 22:00:00,
2013-05-16 16:08:00,55.0,46.0,-100.00,East,90,17.0,23.0,71,-99.99,,,-99.99,,2013-05-16 22:08:00,
2013-05-16 16:21:00,55.0,46.0,-100.00,East,90,17.0,23.0,71,-99.99,,,-99.99,,2013-05-16 22:21:00,
2013-05-16 16:30:00,55.0,46.0,-100.00,East,90,17.0,22.0,71,-99.99,,,-99.99,,2013-05-16 22:30:00,
2013-05-16 16:40:00,54.0,46.0,-100.00,East,90,15.0,21.0,72,-99.99,,,-99.99,,2013-05-16 22:40:00,
2013-05-16 16:50:00,54.0,46.0,-100.00,East,90,15.0,21.0,72,-99.99,,,-99.99,,2013-05-16 22:50:00,
2013-05-16 17:00:00,54.0,46.0,-100.00,East,85,17.0,20.0,72,-99.99,,,-99.99,,2013-05-16 23:00:00,
2013-05-16 17:06:00,54.0,46.0,-100.00,East,95,16.0,21.0,74,-99.99,,,-99.99,,2013-05-16 23:06:00,
2013-05-16 17:16:00,54.0,46.0,-100.00,East,95,16.0,21.0,74,-99.99,,,-99.99,,2013-05-16 23:16:00,
2013-05-16 17:24:00,54.0,46.0,-100.00,East,85,14.0,20.0,74,-99.99,,,-99.99,,2013-05-16 23:24:00,
2013-05-16 17:35:00,54.0,46.0,-100.00,East,90,14.0,20.0,73,-99.99,,,-99.99,,2013-05-16 23:35:00,
2013-05-16 17:45:00,54.0,46.0,-100.00,East,90,14.0,20.0,73,-99.99,,,-99.99,,2013-05-16 23:45:00,
2013-05-16 17:54:00,54.0,46.0,-100.00,East,85,15.0,20.0,73,-99.99,,,-99.99,,2013-05-16 23:54:00,
2013-05-16 18:02:00,54.0,46.0,-100.00,East,90,14.0,19.0,74,-99.99,,,-99.99,,2013-05-17 00:02:00,
2013-05-16 18:13:00,54.0,46.0,-100.00,East,90,14.0,19.0,74,-99.99,,,-99.99,,2013-05-17 00:13:00,
2013-05-16 18:22:00,54.0,46.0,-100.00,East,90,12.0,19.0,74,-99.99,,,-99.99,,2013-05-17 00:22:00,
2013-05-16 18:33:00,54.0,46.0,-100.00,East,100,12.0,18.0,76,-99.99,,,-99.99,,2013-05-17 00:33:00,
2013-05-16 18:43:00,54.0,46.0,-100.00,East,100,12.0,18.0,76,-99.99,,,-99.99,,2013-05-17 00:43:00,
2013-05-16 18:52:00,54.0,46.0,-100.00,East,95,14.0,17.0,76,-99.99,,,-99.99,,2013-05-17 00:52:00,
2013-05-16 19:03:00,54.0,46.0,-100.00,East,100,14.0,17.0,76,-99.99,,,-99.99,,2013-05-17 01:03:00,
2013-05-16 19:12:00,54.0,46.0,-100.00,East,100,14.0,17.0,76,-99.99,,,-99.99,,2013-05-17 01:12:00,
2013-05-16 19:23:00,53.0,46.0,-100.00,East,95,12.0,17.0,77,-99.99,,,-99.99,,2013-05-17 01:23:00,
2013-05-16 19:32:00,53.0,46.0,-100.00,East,90,14.0,18.0,77,-99.99,,,-99.99,,2013-05-17 01:32:00,
2013-05-16 19:43:00,53.0,46.0,-100.00,East,90,14.0,18.0,77,-99.99,,,-99.99,,2013-05-17 01:43:00,
2013-05-16 19:52:00,53.0,46.0,-100.00,East,95,14.0,19.0,77,-99.99,,,-99.99,,2013-05-17 01:52:00,
2013-05-16 20:02:00,53.0,46.0,-100.00,East,90,12.0,17.0,78,-99.99,,,-99.99,,2013-05-17 02:02:00,
2013-05-16 20:11:00,53.0,46.0,-100.00,East,90,12.0,17.0,78,-99.99,,,-99.99,,2013-05-17 02:11:00,
2013-05-16 20:22:00,53.0,46.0,-100.00,East,90,12.0,16.0,79,-99.99,,,-99.99,,2013-05-17 02:22:00,
2013-05-16 20:32:00,52.0,46.0,-100.00,East,95,14.0,17.0,79,-99.99,,,-99.99,,2013-05-17 02:32:00,
2013-05-16 20:42:00,52.0,46.0,-100.00,East,95,14.0,17.0,79,-99.99,,,-99.99,,2013-05-17 02:42:00,
2013-05-16 20:53:00,52.0,46.0,-100.00,East,95,13.0,16.0,79,-99.99,,,-99.99,,2013-05-17 02:53:00,
2013-05-16 21:02:00,52.0,46.0,-100.00,ESE,105,10.0,14.0,80,-99.99,,,-99.99,,2013-05-17 03:02:00,
2013-05-16 21:11:00,52.0,46.0,-100.00,ESE,105,10.0,14.0,80,-99.99,,,-99.99,,2013-05-17 03:11:00,
2013-05-16 21:22:00,52.0,46.0,-100.00,East,95,12.0,15.0,80,-99.99,,,-99.99,,2013-05-17 03:22:00,
2013-05-16 21:34:00,52.0,46.0,-100.00,East,100,13.0,16.0,80,-99.99,,,-99.99,,2013-05-17 03:34:00,
2013-05-16 21:43:00,52.0,46.0,-100.00,East,100,13.0,16.0,80,-99.99,,,-99.99,,2013-05-17 03:43:00,
2013-05-16 21:53:00,52.0,46.0,-100.00,East,100,14.0,17.0,80,-99.99,,,-99.99,,2013-05-17 03:53:00,
2013-05-16 22:02:00,52.0,46.0,-100.00,ESE,105,13.0,16.0,80,-99.99,,,-99.99,,2013-05-17 04:02:00,
2013-05-16 22:13:00,52.0,46.0,-100.00,ESE,105,13.0,16.0,80,-99.99,,,-99.99,,2013-05-17 04:13:00,
2013-05-16 22:23:00,52.0,46.0,-100.00,East,95,11.0,16.0,80,-99.99,,,-99.99,,2013-05-17 04:23:00,
2013-05-16 22:33:00,51.0,46.0,-100.00,East,95,12.0,14.0,80,-99.99,,,-99.99,,2013-05-17 04:33:00,
2013-05-16 22:43:00,51.0,46.0,-100.00,East,95,12.0,14.0,80,-99.99,,,-99.99,,2013-05-17 04:43:00,
2013-05-16 22:53:00,51.0,46.0,-100.00,East,100,12.0,17.0,80,-99.99,,,-99.99,,2013-05-17 04:53:00,
2013-05-16 23:03:00,51.0,46.0,-100.00,East,95,9.0,12.0,81,-99.99,,,-99.99,,2013-05-17 05:03:00,
2013-05-16 23:14:00,51.0,46.0,-100.00,East,95,9.0,12.0,81,-99.99,,,-99.99,,2013-05-17 05:14:00,
2013-05-16 23:22:00,51.0,46.0,-100.00,East,95,12.0,14.0,81,-99.99,,,-99.99,,2013-05-17 05:22:00,
2013-05-16 23:32:00,51.0,46.0,-100.00,East,95,12.0,14.0,81,-99.99,,,-99.99,,2013-05-17 05:32:00,